STARLINK-3344, 51110

Orbit data source: Space-Track

STARLINK-3344, 51110 is a payload satellite owned by SpaceX/Seattle (US) in LEO that was launched on Wed, 19 Jan 2022 UTC via an FALCON 9 launch vehicle from the Air Force Eastern Test Range (AFETR). Payload-class satellites include a variety of spacecraft equipped with specific instruments for various scientific and technological missions. These include communications satellites like Starlink; space stations such as the ISS; scientific satellites like the Hubble; Earth observation satellites from companies like Planet Labs, Umbra, and HawkEye 360; GPS; miniature CubeSats for education and research; and military/defense satellites.

Loading next visibility...
Identifier
51110, 2022-005G
Orbit
LEO
Country
Flag of USUS
Related business
Manufacturer
SpaceX/Seattle
Mission
Operational Commercial Communications
Bus & Motor
STARLINK, Unknown motor
Mass
297 kg wet, ~275 kg dry
Launch date (UTC)
2022-01-19 (4 years ago)
Launch vehicle
FALCON 9
Launch site
Air Force Eastern Test Range (AFETR)
Object type
Payload
Rocket body
Debris
Shape & HBR
Box + 1 Pan, 10.1 m
Radar Cross Section
13.562 m², Large (>1 m²)

Expand to show TLE details & history
Last TLE update: 1 day ago

TLE from 1 day ago
0 STARLINK-3344
1 51110U 22005G   26093.60530580  .00000867  00000-0  72574-4 0  9994
2 51110  53.2157 177.2479 0001509  89.7717 270.3448 15.08843469232647
Epoch: 2026-04-03T14:31Z
TLE epoch observation values (Epoch: 2026-04-03T14:31:38.421Z)
Latitude
-0.00001°
Longitude
127.40077°
Altitude
540.624 km
Speed
7.593 km/s
True Right ascension
11h 48m 59s
True Declination
0° 00' 00"
Sunlit
Object was in full shadow at epoch
Visualization orbit readout
Latitude
Unknown
Longitude
Unknown
Altitude
Unknown
Speed
Unknown
Apparent Right ascension
Unknown
Apparent Declination
Unknown
Sunlit
N/A
Visualization observer readout
Local Sidereal Time
01:55:55
Azimuth
Unknown
Elevation
Unknown
Doppler factor
Unknown
Orbital elements
Apogee altitude
541.022 km
Perigee altitude
538.934 km
Semi-major axis
6,918.115 km
Eccentricity
0.00015
Inclination
53.2157°
RAAN
177.2479°
Arg. of periapsis
89.7717°
True anomaly
270.32751°
Mean anomaly
270.3448°
Eccentric anomaly
270.33615°
Mean motion
3.77191 °/min
Orbital period
95.44 mins
BSTAR
0.000072574
Loading maneuver chart data...
Computing Atmospheric mass density...
Loading historical data...
Loading historical data...
Loading historical data...
Loading historical data...
Loading historical data...
Loading historical data...
Loading historical data...

Documentation

Showing up to 5 results
|